This is the latest recevied weather packets stored in our database for station/object K9ZOG. If no packets are shown the sender has not sent any weather packets the latest 10 day(s).
| Time | Temp. | Humidity | Pressure | Rain* | Wind** | Luminosity | Snow |
|---|---|---|---|---|---|---|---|
| 1777964953 | 10.56° C | 64% | 1001.5 hPa | 0.25 mm | - | 0 W/m² | - |
| 1777964652 | 10.56° C | 70% | 1001.4 hPa | 0.25 mm | - | 0 W/m² | - |
| 1777964352 | 10.56° C | 74% | 1001.6 hPa | 0.25 mm | - | 0 W/m² | - |
| 1777964052 | 10.56° C | 77% | 1001.5 hPa | 0.25 mm | - | 0 W/m² | - |
| 1777963752 | 10.56° C | 82% | 1002 hPa | 0.25 mm | - | 0 W/m² | - |
| 1777963452 | 10.56° C | 83% | 1002.3 hPa | 0.25 mm | - | 0 W/m² | - |
| 1777963156 | 10.56° C | 82% | 1001.8 hPa | 0.25 mm | - | 0 W/m² | - |
| 1777962853 | 10.56° C | 82% | 1001.7 hPa | 0.25 mm | - | 0 W/m² | - |
| 1777962552 | 11.11° C | 82% | 1001.8 hPa | 0.25 mm | - | 0 W/m² | - |
| 1777962253 | 11.11° C | 82% | 1001.8 hPa | 0.25 mm | - | 0 W/m² | - |
| 1777961952 | 11.11° C | 82% | 1001.5 hPa | 0 mm | - | 0 W/m² | - |
| 1777961653 | 11.11° C | 83% | 1001.8 hPa | 0 mm | - | 0 W/m² | - |
| 1777961354 | 11.11° C | 83% | 1001.5 hPa | 0 mm | - | 0 W/m² | - |
| 1777961052 | 11.11° C | 83% | 1001.5 hPa | 0 mm | - | 0 W/m² | - |
| 1777960752 | 11.11° C | 83% | 1001.6 hPa | 0 mm | - | 0 W/m² | - |
| 1777960452 | 11.11° C | 83% | 1001.7 hPa | 0 mm | - | 0 W/m² | - |
| 1777960152 | 11.67° C | 83% | 1001.7 hPa | 0 mm | - | 0 W/m² | - |
| 1777959852 | 11.67° C | 83% | 1001.4 hPa | 0 mm | - | 0 W/m² | - |
| 1777959552 | 11.67° C | 83% | 1001.5 hPa | 0 mm | - | 0 W/m² | - |
| 1777959254 | 11.67° C | 83% | 1001.3 hPa | 0 mm | - | 0 W/m² | - |
| 1777958953 | 11.67° C | 83% | 1001.3 hPa | 0 mm | - | 0 W/m² | - |
| 1777958652 | 11.67° C | 83% | 1001.4 hPa | 0 mm | - | 0 W/m² | - |
| 1777958352 | 11.67° C | 83% | 1001.3 hPa | 0 mm | - | 0 W/m² | - |
| 1777958054 | 11.67° C | 83% | 1001 hPa | 0 mm | - | 0 W/m² | - |
| 1777957759 | 12.22° C | 82% | 1001 hPa | 0 mm | - | 0 W/m² | - |
* Rain latest hour (hover to see other rain measurements)
** Current wind speed in m/s (hover to see current wind gust speed)